Location: Unnamed
(51.5169°N, 0.1311°W)
Time: 19:52:25
(UTC+01:00)

Tiros 1 - Pass Details

Date: 11 August 2024
Orbit: 623 x 655 km, 48.4° (Epoch: 16 September)

Event Time Altitude Azimuth Distance (km) Brightness Sun altitude
Rises 06:31:20 0° 227° (SW) 2,969 10.0 6.6°
Reaches altitude 10° 06:33:50 10° 218° (SW) 2,062 9.3 6.9°
Maximum altitude 06:38:06 33° 154° (SSE) 1,097 8.6 7.6°
Drops below altitude 10° 06:42:22 10° 91° (E) 2,066 11.7 8.2°
Sets 06:44:52 0° 82° (E) 2,977 12.9 8.6°
